Flag for Dominican Republic Weather past 2 weeks in Punta Cana, Dominican Republic

Now
82 °F

Scattered clouds.


Feels Like: 88 °F
Forecast: 78 / 86 °F
Wind: 7 mph from East

Location: Punta Cana

Current Time: May 26, 2015 at 11:01:54 AM

Latest Report: May 26, 2015 at 10:00 AM


Visibility: N/A

Pressure: 30.07 "Hg

Humidity: 74%

Dew point: 73 °F

Location of Punta CanaLocation

Historic Weather in Punta Cana — Graph

°F

Punta Cana temperature yesterday

Maximum temperature yesterday: 88 °F (at 2:05 PM)
Minimum temperature yesterday: 73 °F (at 5:00 AM)
Average temperature yesterday: 82 °F

Past Weeks' High & Low Weather Summary

 TemperatureHumidityPressure
High88 °F (May 21, 2:00 PM)100% (May 14, 1:00 AM)30.15 "Hg (May 14, 1:00 AM)
Low73 °F (May 16, 2:00 AM)55% (May 15, 11:00 AM)29.95 "Hg (May 20, 4:00 PM)
Average81 °F78%30.05 "Hg
* Reported May 11 10:00 AM — May 26 10:00 AM, Punta Cana, Weather by CustomWeather, © 2015

Note: Actual official high and low records may vary slightly from our data, if they occured in-between our weather recording intervals... More about our weather records

Advertising

Punta Cana weather history for previous 24 hours

 ConditionsComfort  
Time TempWeatherWind HumidityBarometerVisibility
10:00 AM
Tue, May 26
82 °FScattered clouds.7 mph74%30.07 "HgN/A
9:00 AM82 °FPassing clouds.7 mph74%30.04 "HgN/A
8:00 AM81 °FPassing clouds.5 mph79%30.04 "HgN/A
4:00 AM79 °FPassing clouds.7 mph84%30.01 "HgN/A
3:00 AM79 °FPassing clouds.5 mph84%30.01 "HgN/A
2:00 AM79 °FPassing clouds.5 mph84%30.04 "HgN/A
1:00 AM79 °FPassing clouds.6 mph84%30.04 "HgN/A
12:00 AM77 °FPassing clouds.7 mph83%30.07 "HgN/A
11:00 PM
Mon, May 25
79 °FPassing clouds.7 mph84%30.07 "HgN/A
10:00 PM79 °FPassing clouds.8 mph84%30.07 "HgN/A
9:00 PM81 °FPassing clouds.9 mph79%30.07 "HgN/A
8:00 PM81 °FPassing clouds.16 mph74%30.04 "HgN/A
7:00 PM81 °FPassing clouds.14 mph79%30.04 "HgN/A
6:00 PM84 °FPassing clouds.16 mph70%30.04 "HgN/A
5:00 PM84 °FPassing clouds.12 mph70%30.04 "HgN/A
4:00 PM86 °FPassing clouds.12 mph66%30.04 "HgN/A
3:00 PM88 °FPassing clouds.12 mph59%30.04 "HgN/A
2:05 PM88 °FScattered clouds.12 mph66%30.07 "HgN/A
2:00 PM86 °FScattered clouds.12 mph70%30.07 "HgN/A
1:00 PM86 °FScattered clouds.12 mph66%30.07 "HgN/A
12:00 PM86 °FScattered clouds.9 mph66%30.09 "HgN/A
11:00 AM86 °FScattered clouds.12 mph70%30.09 "HgN/A
Weather by CustomWeather, © 2015

See weather overviewHow to use our weather pages